Lid_Strength_Index
0 0 1 3 11 11 14 12 9 10 10 6 6 7 9 8 10 13 2 1 1 0 -0 -0 -1 -2 -1 -1 -1 -1 -1 -1 -2 -1 -2 -2 -1 -1 -1 -1 -1 -1 -1 -1 -1 -1 -1 -1 -2
0 1 2 7 13 15 14 10 11 9 8 6 6 7 8 9 5 5 3 1 0 -0 -0 -0 -1 -2 -1 -1 -1 -1 -1 -1 -1 -1 -1 -1 -1 -1 -1 -1 -1 -1 -1 -1 -1 -1 -2 -1 -1
1 1 7 10 13 15 14 10 10 8 6 7 7 6 7 8 4 4 1 0 0 0 -0 -0 -1 -2 -1 -1 -1 -1 -1 -1 -1 -1 -1 -1 -1 -1 -1 -1 -1 -1 -1 -1 -1 -1 -1 -1 -1
3 4 6 11 13 10 11 9 8 8 6 6 6 9 5 3 4 2 1 0 0 0 -0 -1 -1 -1 -2 -1 -1 -1 -1 -1 -1 -1 -1 -1 -1 -1 -1 -1 -1 -1 -1 -1 -1 -1 -1 -1 -1
3 6 10 12 11 9 9 8 7 8 8 7 6 9 8 3 1 1 1 0 1 0 0 -0 -2 -2 -2 -1 -1 -1 -1 -1 -1 -1 -1 -1 -1 -1 -1 -1 -1 -1 -1 -1 -1 -1 -1 -1 -1
7 7 12 14 11 9 8 7 7 8 7 7 8 8 7 2 2 1 1 1 0 0 -0 -0 -1 -1 -1 -1 -1 -1 -1 -1 -1 -1 -1 -1 -1 -1 -1 -1 -1 -1 -1 -1 -1 -1 -1 -1 -1
8 9 11 12 11 10 9 6 8 8 8 8 5 9 6 4 2 1 1 0 0 -0 0 0 -0 -1 -1 -1 -1 -1 -1 -1 -1 -1 -1 -1 -1 -1 -1 -1 -1 -1 -1 -1 -1 -1 -1 -1 -1
6 8 11 11 11 11 8 7 6 7 8 4 4 9 9 4 2 1 1 1 0 0 0 0 0 0 0 -0 -1 -1 -1 -2 -1 -1 -1 -1 -1 -1 -1 -2 -1 -1 -1 -1 -1 -1 -1 -1 -1
5 10 12 11 10 9 7 8 6 4 6 5 5 5 4 2 2 2 2 2 2 1 1 0 1 1 0 0 -0 -1 -1 -1 -1 -1 -2 -1 2 0 -0 -1 -1 -1 -1 -1 -1 -1 -1 -1 -1
7 10 10 7 7 8 7 7 7 7 7 7 6 4 3 3 3 4 4 4 3 2 1 0 1 0 0 -0 0 0 0 0 1 0 0 1 1 1 0 -1 -1 -1 -1 -1 -1 -1 -1 -1 -0
7 9 7 6 6 6 7 7 6 8 9 7 7 6 4 4 4 4 3 3 3 2 1 1 1 0 1 0 1 1 1 1 0 -0 1 1 1 1 0 0 1 1 0 1 -0 -0 0 -0 -0
8 6 6 6 6 7 8 6 7 7 7 5 5 4 4 4 4 4 4 3 3 2 1 1 1 1 1 0 1 1 1 1 1 -0 0 1 1 1 1 1 1 1 2 1 1 1 0 -0 -0
8 6 6 5 6 6 6 8 8 7 5 4 4 4 5 4 4 3 3 2 3 2 1 1 0 1 0 0 0 0 0 1 1 1 0 0 1 2 1 1 1 1 2 2 1 1 0 0 0
6 6 6 6 6 6 8 8 7 7 5 5 5 5 5 4 4 3 3 3 4 2 2 1 1 1 0 0 1 1 1 1 0 1 1 0 1 1 1 1 1 1 0 0 0 0 0 0 0
6 8 7 7 7 8 7 9 9 6 5 6 6 5 5 4 3 4 3 3 2 2 1 1 1 1 1 1 1 1 0 0 0 0 2 2 1 1 1 1 0 0 0 -0 -0 0 -0 1 0
8 8 12 8 7 7 7 13 8 6 6 7 6 5 5 4 4 3 2 2 2 2 2 1 1 1 1 1 1 1 1 1 1 0 1 1 1 1 1 1 0 0 -0 -0 0 0 1 1 1
10 12 11 10 7 7 8 12 8 6 6 7 6 6 5 5 4 3 2 2 2 2 1 1 1 1 1 1 1 2 1 2 1 0 0 1 0 1 1 1 0 -0 -0 0 0 1 1 2 1
12 12 11 11 8 8 10 10 8 7 7 7 6 6 6 5 4 3 2 2 2 2 1 1 1 1 1 1 1 1 1 1 1 1 1 1 1 1 1 1 1 1 0 1 0 1 1 1 1
10 11 10 9 7 9 10 10 9 7 7 7 7 6 6 5 4 3 3 2 2 2 2 1 1 1 1 1 2 2 2 1 2 1 1 1 1 1 2 2 2 2 1 1 1 1 2 2 1
11 11 10 8 7 8 10 10 9 8 7 7 6 6 6 5 4 4 3 3 2 2 2 2 2 2 1 1 1 1 2 1 1 1 1 0 0 1 1 2 2 2 1 2 2 2 2 2 2
12 12 10 10 9 8 10 12 11 8 7 6 6 5 5 5 5 4 4 3 3 2 2 2 2 2 1 1 1 1 2 1 2 2 1 1 1 1 1 1 1 1 1 2 2 2 3 3 2
13 9 9 9 11 14 10 16 12 10 9 8 7 6 6 6 5 4 4 4 3 3 2 1 2 1 1 1 1 2 3 3 2 1 1 2 2 1 1 1 1 1 1 1 2 2 2 3 3
10 8 9 8 12 13 12 14 13 10 11 10 8 7 6 5 5 5 4 3 3 2 2 1 1 1 1 1 1 2 2 2 1 2 2 2 2 1 1 1 1 1 1 1 1 2 2 2 2
9 10 11 12 14 16 13 14 14 13 11 9 8 7 6 6 5 4 4 3 3 2 2 2 2 2 1 1 1 2 2 2 2 2 2 2 2 1 1 0 1 2 1 1 1 1 2 1 1
11 14 16 16 16 16 13 13 14 10 8 8 9 7 6 5 5 5 4 4 3 3 3 2 2 2 1 2 1 1 2 2 2 2 3 2 2 2 2 1 2 2 1 1 1 1 1 1 1
13 13 15 18 17 15 13 16 14 9 8 7 7 6 6 5 5 5 4 4 3 3 4 4 5 5 2 2 2 2 2 2 2 2 2 2 2 2 1 1 1 1 2 2 2 2 2 2 1
13 14 13 16 16 15 15 14 11 9 9 8 8 7 7 6 5 5 4 4 3 3 3 4 2 2 2 3 4 4 3 4 4 3 2 2 2 2 2 1 1 1 1 2 2 2 2 2 2
11 10 13 15 17 20 17 16 15 13 11 9 9 8 7 6 5 5 4 4 3 3 3 2 2 2 1 3 2 2 3 3 3 3 4 4 3 2 2 2 2 2 2 2 1 1 2 2 2
14 13 14 14 14 18 20 17 11 11 10 10 9 7 6 6 6 5 4 4 3 3 2 3 2 2 2 3 3 4 4 4 5 5 5 4 4 4 4 4 4 3 3 2 2 2 1 2 2
12 12 13 15 16 16 15 15 9 9 9 8 8 7 6 5 5 5 4 4 4 3 3 2 2 2 2 3 3 4 5 4 4 5 5 5 5 5 4 4 4 4 4 3 3 3 3 2 3